SCP
0 0 0 0 0 0 0 0 0 0 0 0 0 0 0 0 0 0 0 0 0 0 0 0 0 0 0 0 0 0 0 0 0 0 0 0 0 0 0 0 0 0 0
0 0 0 0 0 0 0 0 0 0 0 0 0 0 0 0 0 0 0 0 0 0 0 0 0 0 0 0 0 0 0 0 0 0 0 0 0 0 0 0 0 0 0
0 0 0 0 0 0 0 0 0 0 0 0 0 0 0 0 0 0 0 0 0 0 0 0 0 0 0 0 0 0 0 0 0 0 0 0 0 0 0 0 0 0 0
0 0 0 0 0 0 0 0 0 0 0 0 0 0 0 0 0 0 0 0 0 0 0 0 0 0 0 0 0 0 0 0 0 0 0 0 0 0 0 0 0 0 0
0 0 0 0 0 0 0 0 0 0 0 0 0 0 0 0 0 0 0 0 0 0 0 0 0 0 0 0 0 0 0 0 0 0 0 0 0 0 0 0 0 0 0
0 0 0 0 0 0 0 0 0 0 0 0 0 0 0 0 0 0 0 0 0 0 0 0 0 0 0 0 0 0 0 0 0 0 0 0 0 0 0 0 0 0 0
0 0 0 0 0 0 0 0 0 0 0 0 0 0 0 0 0 0 0 0 0 0 0 0 0 0 0 0 0 0 0 0 0 0 0 0 0 0 0 0 0 0 0
0 0 0 0 0 0 0 0 0 0 0 0 0 0 0 0 0 0 0 0 0 0 0 0 0 0 0 0 0 0 0 0 0 0 0 0 0 0 0 0 0 0 0
0 0 0 0 0 0 0 0 0 0 0 0 0 0 0 0 0 0 0 0 0 0 0 0 0 0 0 0 0 0 0 0 0 0 0 0 0 0 0 0 0 0 0
0 0 0 0 0 0 0 0 0 0 0 0 0 0 0 0 0 0 0 0 0 0 0 0 0 0 0 0 0 0 0 0 0 0 0 0 0 0 0 0 0 0 0
0 0 0 0 0 0 0 0 0 0 0 0 0 0 0 0 0 0 0 0 0 0 0 0 0 0 0 0 0 0 0 0 0 0 0 0 0 0 0 0 0 0 0
0 0 0 0 0 0 0 0 0 0 0 0 0 0 0 0 0 0 0 0 0 0 0 0 0 0 0 0 0 0 0 0 0 0 0 0 0 0 0 0 0 0 0
0 0 0 0 0 0 0 0 0 0 0 0 0 0 0 0 0 0 0 0 0 0 0 0 0 0 0 0 0 0 0 0 0 0 0 0 0 0 0 0 0 0 0
0 0 0 0 0 0 0 0 0 0 0 0 0 0 0 0 0 0 0 0 0 0 0 0 0 0 0 0 0 0 0 0 0 0 0 0 0 0 0 0 0 0 0
0 0 0 0 -0 0 0 0 0 0 0 0 0 0 0 0 0 0 0 0 0 0 0 0 0 0 0 0 0 0 0 0 0 0 0 0 0 0 0 0 0 0 0
0 0 0 -0 -0 0 0 0 0 0 0 0 0 0 0 0 0 0 0 0 0 0 0 0 0 0 0 0 0 0 0 0 0 0 0 0 0 0 0 0 0 0 0
0 0 0 0 0 0 0 0 0 0 0 0 0 0 0 0 0 0 0 0 0 0 0 0 0 0 0 0 0 0 0 0 0 0 0 0 0 0 0 0 0 0 0
0 0 0 0 0 0 0 0 0 0 0 0 0 0 0 0 0 0 0 0 0 0 0 0 0 0 0 0 0 0 0 0 0 0 0 0 0 0 0 0 0 0 0
0 0 0 0 0 0 0 0 0 0 0 0 0 0 0 0 0 0 0 0 0 0 0 0 0 0 0 0 0 0 0 0 0 0 0 0 0 0 0 0 0 0 0
0 0 0 0 0 0 0 0 0 0 0 0 0 0 0 0 0 0 0 0 0 0 0 0 0 0 0 0 0 0 0 0 0 0 0 0 0 0 0 0 0 0 0
0 0 0 0 0 0 0 0 0 0 0 0 0 0 0 0 0 0 0 0 0 0 0 0 0 0 0 0 0 0 0 0 0 0 0 0 0 0 0 0 0 0 0
0 0 -0 0 0 0 0 0 0 0 0 0 0 0 0 0 0 0 0 0 0 0 0 0 0 0 0 0 0 0 0 0 0 0 0 0 0 0 0 0 0 0 0
0 0 -0 0 0 0 0 0 0 0 0 0 0 0 0 0 0 0 0 0 0 0 0 0 0 0 0 0 0 0 0 0 0 0 0 0 0 0 0 0 0 0 0
0 0 -0 0 0 0 0 0 0 0 0 0 0 0 0 0 0 0 0 0 0 0 0 0 0 0 0 0 0 0 0 0 0 0 0 0 0 0 0 0 0 0 0
0 0 -0 0 0 0 0 0 0 0 0 0 0 0 0 0 0 0 0 0 0 0 0 0 0 0 0 0 0 0 0 0 0 0 0 0 0 0 0 0 0 0 0
0 0 0 0 0 0 0 0 0 0 0 0 0 0 0 0 0 0 0 0 0 0 0 0 0 0 0 0 0 0 0 0 0 0 0 0 0 0 0 0 0 0 0
Wind_Speed
1 1 1 1 2 1 1 1 1 2 2 2 2 2 2 2 1 1 1 4 4 4 4 5 6 6 6 7 6 6 6 7 7 8 8 7 7 8 9 9 10 11 11
0 1 1 1 1 1 1 1 1 1 2 2 2 2 2 2 2 1 1 2 4 3 3 5 6 6 7 7 7 7 7 7 7 8 7 7 7 8 9 10 10 10 11
0 0 1 1 2 1 1 1 1 1 1 1 2 2 2 1 1 1 1 1 1 2 2 4 5 6 6 7 8 8 7 8 8 8 8 7 7 8 9 9 9 9 10
1 0 1 2 2 1 1 1 1 1 1 1 2 2 1 1 2 2 1 1 1 1 1 2 3 5 6 6 7 8 8 8 8 8 8 8 8 8 9 8 8 8 9
1 1 1 2 2 1 1 1 0 0 1 2 1 1 1 1 1 1 1 1 1 1 0 1 2 3 5 6 7 8 9 9 9 8 8 8 8 8 9 9 9 8 8
2 1 1 2 1 1 1 1 0 0 0 1 1 2 2 1 1 1 1 0 0 0 0 0 0 1 3 4 5 6 8 9 9 9 9 9 8 8 9 9 9 9 9
2 1 1 2 1 0 1 1 0 1 1 1 1 2 2 2 2 2 1 1 1 1 0 1 1 0 1 3 4 5 7 8 9 9 9 9 9 9 9 9 10 9 9
2 2 1 1 1 1 1 1 0 0 1 1 1 1 2 3 3 2 2 1 1 1 1 1 1 1 1 1 2 4 5 6 8 8 9 9 9 8 8 9 10 10 9
3 2 2 1 1 0 1 1 1 1 1 1 1 2 2 1 1 2 2 2 2 1 2 1 1 1 1 1 1 3 3 4 6 8 8 9 9 8 8 8 9 9 9
3 2 2 1 1 1 1 2 1 1 2 1 0 1 1 2 1 1 2 2 2 2 2 2 2 2 1 1 1 2 3 4 4 6 8 9 9 9 9 8 8 9 9
3 3 2 1 1 1 1 1 0 1 1 2 1 1 1 1 1 2 0 2 2 1 1 1 1 1 1 1 1 1 3 4 4 5 6 8 8 9 9 8 8 8 9
3 3 3 2 1 1 1 1 1 1 1 1 1 1 2 1 1 2 1 0 1 1 1 1 1 1 0 0 0 1 2 3 3 4 5 6 7 7 8 8 8 8 8
2 3 3 2 1 1 1 1 1 1 1 1 2 1 1 1 2 2 2 1 0 1 1 1 0 1 1 0 0 0 2 3 3 3 3 4 5 5 6 6 7 7 8
3 3 3 2 2 1 1 0 0 1 1 1 1 1 1 1 2 2 2 2 1 1 1 1 1 0 1 1 0 0 1 2 3 3 3 4 5 5 5 5 5 6 6
2 2 2 2 2 1 1 0 0 0 1 1 1 1 1 1 1 1 2 2 3 1 1 1 1 1 1 0 0 0 1 2 3 3 3 3 4 5 5 5 4 4 4
2 2 2 2 2 2 1 1 0 0 0 0 1 1 1 0 0 1 1 1 2 3 1 1 1 1 1 1 1 1 0 1 2 3 3 3 3 4 4 4 4 4 4
1 1 1 1 1 1 1 1 1 0 0 0 0 1 1 1 1 1 1 1 1 2 2 1 0 0 0 1 1 1 1 1 1 1 2 3 3 3 4 4 4 3 3
2 1 1 1 1 1 1 0 1 0 0 1 1 1 1 1 1 1 1 1 1 2 2 2 0 0 0 0 1 1 1 1 1 1 2 3 3 3 3 4 4 3 3
2 1 0 1 1 1 1 1 1 1 0 0 1 1 1 1 1 1 1 1 1 1 2 2 1 0 0 0 1 1 1 1 1 1 1 2 2 2 3 4 4 4 4
2 2 1 1 2 2 1 1 0 1 1 1 1 0 1 1 2 2 1 1 2 2 2 2 1 0 0 0 1 1 1 1 1 1 1 1 0 1 2 3 3 4 4
3 2 1 1 2 1 2 1 1 0 0 1 1 1 1 1 2 2 2 2 3 2 2 2 1 0 0 0 0 0 0 1 1 1 1 1 0 0 1 1 2 3 3
2 2 2 2 2 2 2 3 2 1 1 0 1 1 1 1 1 1 2 3 4 4 3 2 1 1 1 1 1 1 1 1 1 1 0 1 0 0 1 1 2 2 3
3 3 3 2 3 3 3 3 3 2 1 1 1 0 1 1 1 1 1 1 1 2 4 4 3 3 2 2 2 1 1 1 1 1 0 1 1 1 1 1 0 1 2
3 3 3 3 3 4 4 3 3 2 1 1 1 1 1 1 0 1 2 1 1 1 1 2 3 3 2 3 3 3 2 1 0 1 1 0 1 1 1 1 1 1 1
4 4 3 4 4 4 4 4 4 2 1 1 1 1 1 1 2 2 3 2 0 1 1 2 2 1 1 2 3 2 2 1 0 1 0 1 0 1 1 1 2 3 2
5 4 4 4 4 4 4 5 5 2 2 1 1 1 1 1 1 2 2 2 1 2 0 1 1 1 1 1 2 2 2 2 1 1 0 1 0 0 1 1 1 2 2
Wind_Direction
327 327 321 330 326 327 329 328 328 324 322 314 305 299 295 287 273 260 279 288 277 256 241 233 225 213 206 196 188 180 168 157 152 147 143 145 146 147 148 146 144 142 142
250 293 318 322 314 304 302 305 304 305 303 297 302 307 292 285 273 263 260 291 285 268 248 236 229 221 212 201 191 184 177 167 164 157 152 152 148 149 152 149 151 148 148
297 289 309 306 300 301 306 313 321 334 325 319 310 305 295 281 280 278 278 276 284 272 247 238 227 219 217 210 196 185 182 174 173 169 164 161 153 148 146 149 149 152 154
344 331 308 299 300 307 315 304 334 342 336 331 316 312 319 317 299 272 253 258 247 265 265 259 228 219 220 215 202 191 186 180 176 176 171 165 161 158 155 154 152 152 154
344 348 316 303 310 329 329 315 43 347 322 320 308 326 344 339 313 308 284 263 223 192 227 263 239 228 222 214 206 198 194 187 180 178 176 172 167 165 163 162 160 159 157
340 347 319 315 331 357 337 339 344 4 325 308 347 16 359 349 346 349 312 322 42 85 140 139 196 249 224 203 195 197 196 191 186 185 183 181 176 174 172 171 169 169 165
333 328 317 325 336 324 285 287 2 29 11 354 49 11 357 7 22 3 346 28 38 24 76 113 120 168 228 200 187 198 198 191 189 189 189 186 183 181 179 178 177 177 174
325 322 313 303 304 305 327 333 86 91 16 39 104 80 10 357 0 2 10 33 35 37 36 53 111 142 171 150 187 201 198 193 195 191 189 186 182 182 183 185 184 182 181
326 326 312 298 299 266 265 260 198 148 135 19 74 134 135 213 323 344 5 16 20 43 30 20 60 102 146 146 159 198 198 197 201 195 190 186 185 186 187 189 190 189 189
328 330 319 302 285 264 260 258 187 171 146 137 23 61 148 163 139 359 350 359 13 39 33 27 36 52 71 134 152 159 172 185 203 201 195 191 189 192 195 197 197 197 197
326 329 323 313 298 270 258 257 175 169 160 160 160 154 97 73 105 142 344 342 358 354 21 37 38 42 49 83 153 170 177 184 200 204 200 196 195 194 196 200 204 206 206
320 328 325 322 304 282 262 237 199 181 182 166 165 160 151 148 166 148 173 274 327 318 344 40 34 25 24 68 223 155 175 182 193 194 198 199 200 200 200 202 209 212 212
305 314 323 316 308 290 274 245 195 195 187 175 185 193 183 183 167 162 154 169 322 327 342 349 346 4 7 26 296 159 177 195 200 196 184 186 193 199 202 208 213 216 219
273 296 309 309 314 308 305 202 183 210 189 191 205 190 187 208 178 173 162 151 126 346 343 303 332 359 357 360 339 148 181 201 190 190 189 187 191 196 202 215 222 222 225
281 301 315 327 329 340 6 89 87 266 189 192 207 198 196 218 179 180 166 159 153 159 262 289 314 333 346 23 3 141 170 197 179 182 184 184 185 190 198 207 215 218 226
292 316 326 332 336 345 7 50 2 343 117 209 183 168 187 209 151 166 170 169 165 161 188 257 259 306 335 24 61 75 127 137 152 166 169 170 177 177 188 200 204 209 218
285 296 305 321 328 333 353 16 345 38 78 341 166 176 205 172 151 161 154 154 165 158 173 266 311 333 30 40 25 36 56 114 150 181 180 174 174 174 183 193 199 198 204
262 271 292 318 318 330 344 324 316 351 208 270 269 189 219 169 161 166 155 166 170 171 163 174 314 3 29 162 80 56 35 75 112 189 191 187 180 184 191 193 197 204 210
251 268 248 272 296 299 292 275 271 288 279 268 276 223 226 162 174 187 173 169 170 154 147 153 177 48 360 34 74 59 51 28 28 59 163 167 181 198 199 199 201 206 213
225 239 235 246 271 279 269 260 259 294 302 316 318 274 224 187 199 193 180 177 154 132 132 140 152 160 111 359 91 82 34 17 7 20 40 71 163 210 211 208 210 209 211
221 225 228 263 284 273 256 227 213 209 251 340 347 329 288 208 201 193 180 174 155 142 138 140 152 137 172 134 150 140 103 360 350 15 21 357 354 327 270 242 224 215 210
222 210 220 238 263 270 270 207 180 170 165 185 324 326 320 335 289 226 180 166 165 163 167 165 175 178 216 201 188 170 148 84 327 343 48 310 43 274 279 253 228 213 209
212 214 225 227 246 265 259 215 188 164 168 192 225 307 339 353 19 82 71 88 143 184 181 172 174 199 202 200 175 173 178 181 216 266 84 306 326 273 286 322 200 198 205
207 214 222 223 236 257 242 208 175 152 148 175 208 215 222 296 301 133 120 90 55 339 212 178 180 203 203 194 185 184 178 158 73 3 116 205 320 305 330 353 33 72 97
208 210 212 214 223 251 234 202 172 147 153 213 250 230 210 234 263 148 129 131 36 322 317 161 172 178 178 161 151 127 129 127 27 330 35 162 289 326 340 355 25 46 46
209 206 214 215 215 231 231 209 177 158 171 208 256 281 240 210 232 166 154 155 184 264 255 84 63 31 45 72 117 148 163 158 161 246 297 144 241 43 344 349 8 14 20